Date String (YYYY-MM-DD hh:mm:ss) UTC,Instrument flags,Ambient pressure (hPa),Sample flow (lpm),Bypass flow (lpm),Sample temperature (°C),Ambient temperature (°C),ASC tube jacket temperature (°C),LED temperature (°C),Box temperature (°C),Sample RH (%),Span deviation,Mass concentration (μg/m³),Mass concentration (μg/m³),Mass concentration (μg/m³)
DateTimeUTC,F1_M11,P_M11,Q1_M11,Q2_M11,T1_M11,T2_M11,T3_M11,T4_M11,T5_M11,U1_M11,ZSPAN_M11,X0_M11,X2_M11,X1_M11
2022-12-20 13:00:00,,0829.3,4.97,0.00,22.2,21.5,00.0,30.9,24.0,06.9,0000.0,0018.84,0009.46,0008.69
2022-12-20 13:01:00,,0829.3,5.03,0.00,22.2,21.1,00.0,30.9,23.9,07.2,0000.0,0018.45,0009.46,0008.64
2022-12-20 13:02:00,,0829.3,4.95,0.00,22.1,20.7,00.0,30.9,23.8,07.6,0000.0,0019.30,0009.55,0008.72
2022-12-20 13:03:00,,0829.4,5.04,0.00,22.0,20.4,00.0,30.9,23.7,07.9,0000.0,0019.18,0009.62,0008.79
2022-12-20 13:04:00,,0829.5,4.98,0.00,22.0,20.2,00.0,30.9,23.6,08.0,0000.0,0019.08,0009.72,0008.91
2022-12-20 13:05:00,,0829.5,5.01,0.00,21.9,20.0,00.0,30.9,23.5,08.1,0000.0,0018.39,0009.84,0009.07
2022-12-20 13:06:00,,0829.5,5.03,0.00,21.9,20.0,00.0,30.9,23.5,08.1,0000.0,0017.52,0009.94,0009.17
2022-12-20 13:07:00,,0829.5,4.95,0.00,21.8,20.0,00.0,30.8,23.5,08.1,0000.0,0018.12,0010.11,0009.27
2022-12-20 13:08:00,,0829.5,5.04,0.00,21.8,20.0,00.0,30.8,23.4,08.1,0000.0,0018.46,0010.51,0009.64
2022-12-20 13:09:00,,0829.6,4.99,0.00,21.8,19.9,00.0,30.8,23.4,08.0,0000.0,0018.03,0010.88,0009.99
2022-12-20 13:10:00,,0829.5,4.99,0.00,21.7,19.7,00.0,30.8,23.3,08.0,0000.0,0018.46,0011.31,0010.36
2022-12-20 13:11:00,,0829.5,5.04,0.00,21.7,20.4,00.0,30.7,23.4,07.9,0000.3,0018.59,0011.70,0010.74
2022-12-20 13:12:00,,0829.5,4.98,0.00,21.8,21.6,00.0,30.6,23.7,07.6,0000.9,0019.61,0011.84,0010.91
2022-12-20 13:13:00,,0829.3,4.98,0.00,21.9,21.8,00.0,30.7,23.8,07.4,0000.0,0019.27,0011.67,0010.73
2022-12-20 13:14:00,,0829.5,5.04,0.00,21.9,21.3,00.0,30.7,23.7,07.4,0000.0,0019.71,0011.40,0010.44
2022-12-20 13:15:00,,0829.6,4.96,0.00,21.9,20.9,00.0,30.7,23.6,07.6,0002.0,0020.02,0011.17,0010.17
2022-12-20 13:16:00,,0829.7,5.04,0.00,21.9,20.7,00.0,30.7,23.6,07.6,0001.9,0019.63,0010.87,0009.86
2022-12-20 13:17:00,,0829.6,4.96,0.00,21.9,20.6,00.0,30.7,23.6,07.6,0000.0,0019.43,0010.67,0009.59
2022-12-20 13:18:00,,0829.7,5.03,0.00,21.8,20.5,00.0,30.7,23.5,07.8,0000.4,0018.68,0010.44,0009.42
2022-12-20 13:19:00,,0829.8,5.01,0.00,21.8,20.4,00.0,30.7,23.5,07.6,0000.3,0019.39,0010.18,0009.15
2022-12-20 13:20:00,,0829.6,4.97,0.00,21.8,20.3,00.0,30.7,23.5,07.7,0002.5,0020.04,0010.04,0008.94
2022-12-20 13:21:00,,0829.5,5.03,0.00,21.8,20.2,00.0,30.7,23.4,07.2,0002.1,0020.10,0009.69,0008.65
2022-12-20 13:22:00,,0829.5,4.95,0.00,21.8,20.6,00.0,30.7,23.5,07.4,0000.0,0020.70,0009.51,0008.42
2022-12-20 13:23:00,,0829.6,5.05,0.00,21.9,21.6,00.0,30.6,23.8,07.2,0000.0,0020.18,0009.39,0008.25
2022-12-20 13:24:00,,0829.6,4.96,0.00,22.0,22.1,00.0,30.7,24.0,07.1,0000.2,0019.73,0009.24,0008.15
2022-12-20 13:25:00,,0829.6,5.05,0.00,22.0,21.8,00.0,30.7,24.0,06.7,0001.4,0018.66,0008.92,0007.86
2022-12-20 13:26:00,,0829.6,4.97,0.00,22.0,21.4,00.0,30.7,23.9,06.5,0000.4,0017.40,0008.35,0007.35
2022-12-20 13:27:00,,0829.6,5.00,0.00,22.0,21.1,00.0,30.8,23.8,06.5,0000.0,0016.81,0007.84,0006.87
2022-12-20 13:28:00,,0829.6,5.00,0.00,22.0,20.8,00.0,30.8,23.8,07.0,0000.0,0016.35,0007.47,0006.55
2022-12-20 13:29:00,,0829.6,5.01,0.00,21.9,20.4,00.0,30.8,23.6,07.4,0000.0,0016.33,0007.40,0006.48
2022-12-20 13:30:00,,0829.5,4.97,0.00,21.9,20.1,00.0,30.8,23.5,07.4,0000.0,0015.11,0007.27,0006.41
2022-12-20 13:31:00,,0829.5,5.03,0.00,21.8,20.1,00.0,30.8,23.5,07.3,0000.0,0014.74,0007.14,0006.34
2022-12-20 13:32:00,,0829.5,4.96,0.00,21.8,20.2,00.0,30.7,23.5,07.2,0000.0,0014.73,0007.18,0006.36
2022-12-20 13:33:00,,0829.5,5.02,0.00,21.8,20.2,00.0,30.7,23.5,06.9,0000.0,0014.15,0006.97,0006.21
2022-12-20 13:34:00,,0829.5,4.96,0.00,21.8,20.2,00.0,30.7,23.5,07.0,0000.3,0013.93,0006.83,0006.10
2022-12-20 13:35:00,,0829.4,5.03,0.00,21.8,20.2,00.0,30.7,23.5,07.0,0000.3,0013.06,0006.77,0006.03
2022-12-20 13:36:00,,0829.2,5.00,0.00,21.8,20.3,00.0,30.7,23.4,06.8,0000.0,0012.88,0006.64,0005.94
2022-12-20 13:37:00,,0829.2,5.00,0.00,21.8,21.1,00.0,30.6,23.7,06.6,0000.0,0012.62,0006.45,0005.79
2022-12-20 13:38:00,,0829.1,4.98,0.00,22.0,22.0,00.0,30.6,23.9,06.5,0000.0,0012.26,0006.25,0005.65
2022-12-20 13:39:00,,0828.9,5.04,0.00,22.0,21.8,00.0,30.7,24.0,06.6,0000.0,0011.72,0005.92,0005.40
2022-12-20 13:40:00,,0829.1,4.97,0.00,22.0,21.4,00.0,30.7,23.8,06.4,0000.0,0010.49,0005.22,0004.75
2022-12-20 13:41:00,,0829.1,5.03,0.00,22.0,21.0,00.0,30.7,23.7,06.4,0000.0,0009.74,0004.64,0004.20
2022-12-20 13:42:00,,0829.1,4.96,0.00,21.9,20.8,00.0,30.7,23.6,06.4,0000.0,0008.47,0004.02,0003.62
2022-12-20 13:43:00,,0829.2,5.02,0.00,21.9,20.6,00.0,30.7,23.5,06.5,0000.0,0006.65,0003.45,0003.09
2022-12-20 13:44:00,,0829.4,5.04,0.00,21.8,20.4,00.0,30.7,23.4,06.5,0000.0,0005.46,0003.03,0002.56
2022-12-20 13:45:00,,0829.5,4.96,0.00,21.8,20.3,00.0,30.7,23.3,06.5,0000.0,0003.71,0002.49,0002.05
2022-12-20 13:46:00,,0829.6,5.03,0.00,21.8,20.1,00.0,30.7,23.3,06.7,0000.0,0003.08,0001.90,0001.53
2022-12-20 13:47:00,,0829.8,4.96,0.00,21.8,20.9,00.0,30.6,23.5,06.9,0000.0,0004.33,0002.09,0001.71
2022-12-20 13:48:00,,0829.8,5.04,0.00,21.9,21.8,00.0,30.6,23.7,07.0,0000.0,0006.45,0002.81,0002.38
2022-12-20 13:49:00,,0829.9,4.97,0.00,21.9,21.6,00.0,30.7,23.7,07.0,0000.0,0007.33,0003.40,0003.09
2022-12-20 13:50:00,,0829.8,5.03,0.00,21.9,21.0,00.0,30.7,23.6,06.8,0000.0,0007.81,0003.74,0003.43
2022-12-20 13:51:00,,0829.8,4.97,0.00,21.8,20.4,00.0,30.7,23.4,06.8,0000.0,0008.16,0004.04,0003.71
2022-12-20 13:52:00,,0829.9,5.02,0.00,21.7,20.1,00.0,30.7,23.2,07.4,0000.0,0008.88,0004.66,0004.28
2022-12-20 13:53:00,,0829.9,4.95,0.00,21.7,19.8,00.0,30.7,23.1,08.0,0000.0,0010.01,0005.62,0005.16
2022-12-20 13:54:00,,0829.9,5.03,0.00,21.6,19.6,00.0,30.7,23.1,08.1,0000.0,0011.48,0006.83,0006.30
2022-12-20 13:55:00,,0830.0,5.04,0.00,21.5,19.6,00.0,30.6,23.0,08.2,0000.0,0014.30,0008.05,0007.46
2022-12-20 13:56:00,,0829.9,4.96,0.00,21.6,20.6,00.0,30.6,23.3,08.1,0000.0,0016.07,0009.16,0008.48
2022-12-20 13:57:00,,0829.9,5.03,0.00,21.7,21.7,00.0,30.5,23.6,07.6,0000.0,0016.95,0009.86,0009.16
2022-12-20 13:58:00,,0829.9,4.95,0.00,21.8,21.8,00.0,30.6,23.7,07.4,0000.0,0016.74,0010.18,0009.48
2022-12-20 13:59:00,,0829.9,5.04,0.00,21.8,21.3,00.0,30.6,23.6,07.3,0000.0,0016.31,0010.40,0009.70
